Weather History for Juneau, WI

Change the Weather History Date:

Wednesday, February 19, 2014

  Actual Average Record
Temperature  
Mean Temperature 34 °F -  
Max Temperature 41 °F 31 °F 52 °F (1981)
Min Temperature 28 °F 18 °F -13 °F (1979)
Degree Days  
Heating Degree Days 30    
Moisture  
Dew Point 22 °F    
Average Humidity 63    
Maximum Humidity 81    
Minimum Humidity 40    
Precipitation  
Precipitation 0.00 in - - ()
Sea Level Pressure  
Sea Level Pressure 29.82 in    
Wind  
Wind Speed 7 mph (SW)    
Max Wind Speed 13 mph    
Max Gust Speed -    
Visibility 10 miles    
Events Rain    
Averages and records for this station are not official NWS values.
T = Trace of Precipitation, MM = Missing Value Source: NWS Daily Summary

Daily Weather History Graph

Daily Weather History Graph

Search for Another Location

Airport:

Trip Planner

Search our weather history database for the weather conditions in past years. The results will help you decide how hot, cold, wet, or windy it might be!

Date:

Astronomy

Feb. 19, 2014 Rise Set
Actual Time 6:47 AM CST 5:30 PM CST
Civil Twilight 6:17 AM CST 5:59 PM CST
Nautical Twilight 5:44 AM CST 6:33 PM CST
Astronomical Twilight 5:11 AM CST 7:06 PM CST
Moon 10:34 PM CST (2/19) 8:43 AM CST (2/19)
Length of Visible Light 11h 41m
Length of Day
10h 43m
Waning Gibbous, 79% of the Moon is Illuminated
Feb 19
Waning Gibbous
Feb 22
Last Quarter
Mar 1
New
Mar 8
First Quarter
Mar 16
Full

Hourly Weather History & Observations

Time (CST) Temp. Windchill Dew Point Humidity Pressure Visibility Wind Dir Wind Speed Gust Speed Precip Events Conditions
12:15 AM 28.0 °F 24.2 °F 23.0 °F 81% 29.64 in 10.0 mi WSW 3.5 mph - N/A   Overcast
12:35 AM 30.2 °F 25.4 °F 23.9 °F 77% 29.65 in 10.0 mi WNW 4.6 mph - N/A   Overcast
12:50 AM 31.8 °F 27.3 °F 23.9 °F 73% 29.66 in 10.0 mi WNW 4.6 mph - N/A   Overcast
1:15 AM 33.3 °F 25.7 °F 24.3 °F 70% 29.65 in 10.0 mi NW 9.2 mph - N/A   Mostly Cloudy
1:35 AM 34.2 °F 27.5 °F 23.9 °F 66% 29.65 in 10.0 mi NW 8.1 mph - N/A   Overcast
1:55 AM 34.0 °F 27.2 °F 24.4 °F 68% 29.65 in 10.0 mi NW 8.1 mph - N/A   Overcast
2:15 AM 33.4 °F 29.1 °F 26.4 °F 75% 29.66 in 10.0 mi WNW 4.6 mph - N/A Rain Rain
2:35 AM 33.8 °F 28.6 °F 27.1 °F 77% 29.67 in 10.0 mi WNW 5.8 mph - N/A   Overcast
2:55 AM 34.0 °F 31.0 °F 26.6 °F 74% 29.67 in 10.0 mi WNW 3.5 mph - N/A   Overcast
3:15 AM 34.0 °F 31.0 °F 26.1 °F 73% 29.68 in 10.0 mi West 3.5 mph - N/A   Overcast
3:35 AM 34.2 °F 28.2 °F 25.5 °F 71% 29.69 in 10.0 mi WNW 6.9 mph - N/A   Overcast
3:55 AM 34.7 °F 28.8 °F 24.8 °F 67% 29.69 in 10.0 mi WNW 6.9 mph - N/A   Overcast
4:15 AM 33.4 °F 27.3 °F 23.9 °F 68% 29.70 in 10.0 mi WNW 6.9 mph - N/A   Scattered Clouds
4:35 AM 32.9 °F 26.7 °F 23.2 °F 67% 29.71 in 10.0 mi WNW 6.9 mph - N/A   Clear
4:55 AM 32.0 °F 27.5 °F 23.0 °F 69% 29.72 in 10.0 mi West 4.6 mph - N/A   Clear
5:15 AM 31.6 °F 27.0 °F 22.6 °F 69% 29.74 in 10.0 mi West 4.6 mph - N/A   Clear
5:30 AM 30.9 °F 26.2 °F 22.6 °F 71% 29.74 in 10.0 mi West 4.6 mph - N/A   Clear
5:55 AM 30.4 °F 24.5 °F 22.5 °F 72% 29.75 in 10.0 mi West 5.8 mph - N/A   Clear
6:15 AM 29.8 °F 23.0 °F 22.1 °F 73% 29.76 in 10.0 mi West 6.9 mph - N/A   Clear
6:35 AM 29.3 °F 22.3 °F 21.7 °F 73% 29.77 in 10.0 mi West 6.9 mph - N/A   Clear
6:55 AM 28.9 °F 22.8 °F 21.2 °F 73% 29.78 in 10.0 mi West 5.8 mph - N/A   Clear
7:15 AM 28.9 °F 23.9 °F 21.0 °F 72% 29.80 in 10.0 mi West 4.6 mph - N/A   Clear
7:35 AM 28.8 °F 25.0 °F 20.5 °F 71% 29.81 in 10.0 mi West 3.5 mph - N/A   Clear
7:56 AM 28.4 °F 23.3 °F 19.4 °F 69% 29.82 in 10.0 mi WSW 4.6 mph - N/A   Clear
8:16 AM 28.4 °F 23.3 °F 19.4 °F 69% 29.82 in 10.0 mi WSW 4.6 mph - N/A   Clear
8:20 AM 28.4 °F 23.3 °F 20.1 °F 71% 29.82 in 10.0 mi WSW 4.6 mph - N/A   Clear
8:35 AM 28.4 °F 23.3 °F 20.3 °F 72% 29.82 in 10.0 mi WSW 4.6 mph - N/A   Clear
8:55 AM 29.1 °F 23.0 °F 20.7 °F 71% 29.84 in 10.0 mi WSW 5.8 mph - N/A   Clear
9:15 AM 31.3 °F 25.6 °F 20.1 °F 63% 29.85 in 10.0 mi WSW 5.8 mph - N/A   Clear
9:35 AM 32.0 °F 25.6 °F 21.0 °F 64% 29.85 in 10.0 mi WSW 6.9 mph - N/A   Clear
9:55 AM 33.4 °F 27.3 °F 20.1 °F 58% 29.86 in 10.0 mi WSW 6.9 mph - N/A   Clear
10:15 AM 33.4 °F 28.1 °F 22.5 °F 64% 29.87 in 10.0 mi SSW 5.8 mph - N/A   Clear
10:35 AM 34.7 °F 28.8 °F 21.9 °F 60% 29.87 in 10.0 mi SSW 6.9 mph - N/A   Clear
10:55 AM 34.9 °F 27.7 °F 23.0 °F 62% 29.87 in 10.0 mi SSW 9.2 mph - N/A   Clear
11:15 AM 35.2 °F 28.8 °F 22.6 °F 60% 29.87 in 10.0 mi SSW 8.1 mph - N/A   Clear
11:35 AM 35.8 °F 28.8 °F 22.3 °F 58% 29.88 in 10.0 mi SW 9.2 mph - N/A   Clear
11:55 AM 36.5 °F 29.7 °F 22.3 °F 56% 29.87 in 10.0 mi SW 9.2 mph - N/A   Clear
12:15 PM 36.9 °F 30.1 °F 22.5 °F 56% 29.88 in 10.0 mi SW 9.2 mph - N/A   Clear
12:35 PM 37.4 °F 30.8 °F 22.5 °F 55% 29.88 in 10.0 mi SW 9.2 mph - N/A   Clear
12:55 PM 37.9 °F 30.9 °F 22.5 °F 54% 29.88 in 10.0 mi SSW 10.4 mph - N/A   Clear
1:15 PM 38.5 °F 32.1 °F 22.1 °F 52% 29.88 in 10.0 mi SW 9.2 mph - N/A   Clear
1:35 PM 39.6 °F 33.5 °F 21.2 °F 48% 29.88 in 10.0 mi SW 9.2 mph - N/A   Clear
1:55 PM 39.4 °F 32.7 °F 21.9 °F 50% 29.88 in 10.0 mi SW 10.4 mph - N/A   Clear
2:15 PM 40.1 °F 33.2 °F 20.7 °F 46% 29.88 in 10.0 mi SW 11.5 mph - N/A   Clear
2:35 PM 39.7 °F 34.3 °F 21.7 °F 49% 29.88 in 10.0 mi SW 8.1 mph - N/A   Clear
2:55 PM 39.9 °F 33.9 °F 21.6 °F 48% 29.89 in 10.0 mi SSW 9.2 mph - N/A   Clear
3:15 PM 40.8 °F 35.6 °F 19.8 °F 43% 29.90 in 10.0 mi SW 8.1 mph - N/A   Clear
3:35 PM 41.0 °F 35.2 °F 18.5 °F 40% 29.91 in 10.0 mi SW 9.2 mph - N/A   Clear
3:55 PM 39.7 °F 34.3 °F 21.9 °F 49% 29.92 in 10.0 mi South 8.1 mph - N/A   Clear
4:15 PM 39.9 °F 33.9 °F 22.5 °F 50% 29.92 in 10.0 mi South 9.2 mph - N/A   Clear
4:35 PM 38.7 °F 32.4 °F 22.1 °F 51% 29.92 in 10.0 mi South 9.2 mph - N/A   Clear
4:55 PM 38.5 °F 32.1 °F 22.3 °F 52% 29.92 in 10.0 mi South 9.2 mph - N/A   Clear
5:15 PM 37.4 °F 30.3 °F 22.5 °F 55% 29.91 in 10.0 mi South 10.4 mph - N/A   Clear
5:55 PM 34.7 °F 26.9 °F 22.5 °F 61% 29.92 in 10.0 mi South 10.4 mph - N/A   Clear
6:15 PM 33.8 °F 25.8 °F 22.3 °F 63% 29.92 in 10.0 mi South 10.4 mph - N/A   Clear
6:35 PM 33.6 °F 26.2 °F 21.7 °F 62% 29.92 in 10.0 mi South 9.2 mph - N/A   Clear
6:55 PM 33.1 °F 25.5 °F 21.0 °F 61% 29.92 in 10.0 mi South 9.2 mph - N/A   Clear
7:15 PM 32.0 °F 25.6 °F 20.5 °F 63% 29.91 in 10.0 mi South 6.9 mph - N/A   Clear
7:35 PM 32.2 °F 24.4 °F 20.3 °F 62% 29.91 in 10.0 mi SSE 9.2 mph - N/A   Clear
7:55 PM 31.1 °F 24.5 °F 19.9 °F 63% 29.90 in 10.0 mi ESE 6.9 mph - N/A   Clear
8:15 PM 29.5 °F 21.1 °F 19.4 °F 66% 29.90 in 10.0 mi ESE 9.2 mph - N/A   Clear
8:55 PM 31.1 °F 21.4 °F 21.6 °F 68% 29.90 in 10.0 mi SE 12.7 mph - N/A   Clear
9:55 PM 31.5 °F 23.5 °F 21.4 °F 66% 29.91 in 10.0 mi SSE 9.2 mph - N/A   Clear
10:20 PM 30.6 °F 21.8 °F 21.7 °F 70% 29.91 in 10.0 mi SSE 10.4 mph - N/A   Clear
10:28 PM 30.2 °F 21.3 °F 21.2 °F 69% 29.91 in 10.0 mi SSE 10.4 mph - N/A   Clear
10:35 PM 30.7 °F 22.0 °F 22.1 °F 70% 29.91 in 10.0 mi SSE 10.4 mph - N/A   Clear